Location: Clanezzo
(45.7500°N, 9.6000°E)
Time: 21:50:52
(UTC+00:00)

A-11 Canister half - All Passes

Search period start: 24 May 2022 00:00
Search period end: 03 June 2022 00:00
Orbit: 1513 x 1686 km, 47.2° (Epoch: 23 May)

Date Brightness Start Highest point End Pass type
(mag) Time Alt. Az. Time Alt. Az. Time Alt. Az.
24 May - 05:53:20 10° S 06:00:14 23° SE 06:06:59 10° E daylight
24 May - 07:54:31 10° SW 08:03:47 62° SSE 08:12:51 10° ENE daylight
24 May - 09:59:09 10° W 10:08:34 84° N 10:17:51 10° E daylight
24 May - 12:04:24 10° WNW 12:13:43 87° SSW 12:23:01 10° ESE daylight
24 May - 14:09:28 10° WNW 14:18:01 44° SW 14:26:41 10° SSE daylight
24 May - 16:17:53 10° WSW 16:20:59 12° WSW 16:24:08 10° SW daylight
25 May - 05:30:47 10° S 05:37:24 21° SE 05:43:53 10° E daylight
25 May - 07:31:38 10° SW 07:40:54 60° SSE 07:49:56 10° ENE daylight
25 May - 09:36:11 10° W 09:45:38 85° N 09:54:55 10° E daylight
25 May - 11:41:28 10° WNW 11:50:48 89° SSW 12:00:06 10° ESE daylight
25 May - 13:46:32 10° WNW 13:55:10 47° SW 14:03:54 10° SSE daylight
25 May - 15:54:18 10° W 15:58:13 13° SW 16:02:08 10° SSW daylight
26 May - 05:08:17 10° S 05:14:36 20° SE 05:20:46 10° E daylight
26 May - 07:08:47 10° SW 07:18:01 58° SSE 07:27:01 10° ENE daylight
26 May - 09:13:14 10° W 09:22:42 86° N 09:31:59 10° E daylight
26 May - 11:18:32 10° WNW 11:27:52 90° N 11:37:10 10° ESE daylight
26 May - 13:23:35 10° WNW 13:32:19 49° SW 13:41:07 10° SE daylight
26 May - 15:30:54 10° W 15:35:25 15° SW 15:39:58 10° SSW daylight
27 May - 04:45:50 10° SSE 04:51:46 18° SE 04:57:37 10° E daylight
27 May - 06:45:56 10° SW 06:55:08 55° SE 07:04:05 10° ENE daylight
27 May - 08:50:17 10° WSW 08:59:46 87° N 09:09:03 10° E daylight
27 May - 10:55:35 10° WNW 11:04:57 88° NNE 11:14:14 10° ESE daylight
27 May - 13:00:38 10° WNW 13:09:27 52° SW 13:18:18 10° SE daylight
27 May - 15:07:35 10° W 15:12:37 16° SW 15:17:42 10° SSW daylight
28 May - 04:23:25 10° SSE 04:28:58 17° SE 04:34:26 10° E daylight
28 May - 06:23:05 10° SW 06:32:15 53° SE 06:41:10 10° ENE daylight
28 May - 08:27:19 10° WSW 08:36:49 88° NNW 08:46:07 10° ENE daylight
28 May - 10:32:38 10° W 10:42:01 87° NNE 10:51:18 10° ESE daylight
28 May - 12:37:42 10° WNW 12:46:35 54° SW 12:55:29 10° SE daylight
28 May - 14:44:21 10° W 14:49:49 17° SW 14:55:21 10° SSW daylight
29 May - 04:01:04 10° SSE 04:06:10 16° SE 04:11:10 10° E daylight
29 May - 06:00:16 10° SW 06:09:23 50° SE 06:18:15 10° ENE daylight
29 May - 08:04:22 10° WSW 08:13:54 89° NNW 08:23:12 10° ENE daylight
29 May - 10:09:41 10° W 10:19:05 86° N 10:28:22 10° E daylight
29 May - 12:14:45 10° WNW 12:23:43 57° SSW 12:32:40 10° SE daylight
29 May - 14:21:10 10° W 14:27:01 19° SW 14:32:56 10° SSW daylight
30 May - 03:38:48 10° SSE 03:43:21 14° SE 03:47:51 10° E daylight
30 May - 05:37:26 10° SSW 05:46:30 48° SE 05:55:18 10° ENE daylight
30 May - 07:41:24 10° WSW 07:50:57 89° S 08:00:17 10° ENE daylight
30 May - 09:46:44 10° W 09:56:09 85° N 10:05:26 10° E daylight
30 May - 11:51:49 10° WNW 12:00:51 59° SSW 12:09:50 10° SE daylight
30 May - 13:58:01 10° W 14:04:13 20° SW 14:10:28 10° S daylight
31 May - 03:16:39 10° SSE 03:20:33 13° ESE 03:24:24 10° E daylight
31 May - 05:14:38 10° SSW 05:23:38 46° SE 05:32:22 10° ENE daylight
31 May - 07:18:27 10° WSW 07:28:02 88° SSE 07:37:22 10° ENE daylight
31 May - 09:23:46 10° W 09:33:13 84° N 09:42:30 10° E daylight
31 May - 11:28:52 10° WNW 11:37:58 62° SSW 11:47:00 10° SE daylight
31 May - 13:34:54 10° W 13:41:25 22° SW 13:47:59 10° S daylight
01 Jun - 02:54:43 10° SE 02:57:45 12° ESE 03:00:46 10° ESE visible
01 Jun - 04:51:50 10° SSW 05:00:46 44° SE 05:09:26 10° ENE daylight
01 Jun - 06:55:30 10° WSW 07:05:06 86° SSE 07:14:26 10° ENE daylight
01 Jun - 09:00:49 10° W 09:10:17 83° N 09:19:34 10° E daylight
01 Jun - 11:05:56 10° WNW 11:15:05 64° SSW 11:24:09 10° SE daylight
01 Jun - 13:11:48 10° W 13:18:36 24° SW 13:25:26 10° S daylight
02 Jun - 02:33:13 10° SE 02:34:57 11° ESE 02:36:41 10° ESE visible
02 Jun - 04:29:03 10° SSW 04:37:54 41° SE 04:46:29 10° ENE daylight
02 Jun - 06:32:32 10° WSW 06:42:11 84° SSE 06:51:31 10° ENE daylight
02 Jun - 08:37:50 10° W 08:47:21 83° N 08:56:38 10° E daylight
02 Jun - 10:43:00 10° WNW 10:52:12 67° SSW 11:01:18 10° SE daylight
02 Jun - 12:48:44 10° W 12:55:48 25° SW 13:02:52 10° S daylight
